When you browse on this site, cookies collect data to enhance your experience and personalize the content and advertising you see.
Visit our Privacy Policy to learn more. By continuing to use the site, you agree to this use of cookies and data.
  • In Lithuania
  • List of Countries
  • For 7 days
  • Water Temperature
  • Weather Map
  • Weather Widgets
  • user-avatar
    Login

    Hourly Weather Beverly

    Today, 28 February, Friday

    Time Temperature Precipitation Wind Pressure Humidity
    00:00 0°C° 0 mm 5 mps 757 mmHg 84%
    01:00 0°C° 0 mm 4 mps 757 mmHg 85%
    02:00 0°C° 0 mm 4 mps 757 mmHg 85%
    03:00 0°C° 0 mm 4 mps 757 mmHg 86%
    04:00 0°C° 0 mm 4 mps 756 mmHg 85%
    05:00 0°C° 0 mm 5 mps 756 mmHg 84%
    06:00 0°C° 0 mm 5 mps 756 mmHg 83%
    07:00 -1°C° 0 mm 6 mps 755 mmHg 81%
    08:00 +1°C° 0 mm 6 mps 755 mmHg 78%
    09:00 0°C° 0 mm 7 mps 754 mmHg 76%
    10:00 0°C° 0.7 mm 8 mps 753 mmHg 83%
    11:00 0°C° 0.7 mm 9 mps 751 mmHg 89%
    12:00 0°C° 0.7 mm 10 mps 750 mmHg 95%
    13:00 +1°C° 1 mm 10 mps 748 mmHg 95%
    14:00 +2°C° 1 mm 9 mps 746 mmHg 94%
    15:00 +3°C° 1 mm 9 mps 744 mmHg 93%
    16:00 +5°C° 0.7 mm 8 mps 744 mmHg 93%
    17:00 +6°C° 0.7 mm 8 mps 743 mmHg 93%
    18:00 +8°C° 0.7 mm 7 mps 742 mmHg 93%
    19:00 +8°C° 0.1 mm 7 mps 741 mmHg 93%
    20:00 +8°C° 0.1 mm 7 mps 741 mmHg 92%
    21:00 +8°C° 0.1 mm 7 mps 740 mmHg 91%
    22:00 +9°C° 0.1 mm 7 mps 740 mmHg 91%
    23:00 +9°C° 0.1 mm 8 mps 739 mmHg 91%

    Tomorrow, 29 February, Saturday

    Time Temperature Precipitation Wind Pressure Humidity
    00:00 +9°C° 0.1 mm 8 mps 739 mmHg 91%
    01:00 +8°C° 0.1 mm 9 mps 737 mmHg 89%
    02:00 +8°C° 0.1 mm 9 mps 736 mmHg 87%
    03:00 +8°C° 0.1 mm 10 mps 734 mmHg 85%
    04:00 +8°C° 0.1 mm 11 mps 733 mmHg 85%
    05:00 +8°C° 0.1 mm 11 mps 732 mmHg 85%
    06:00 +8°C° 0.1 mm 12 mps 731 mmHg 85%
    07:00 +7°C° 0.2 mm 10 mps 731 mmHg 84%
    08:00 +6°C° 0.2 mm 8 mps 731 mmHg 83%
    09:00 +4°C° 0.2 mm 7 mps 731 mmHg 81%
    10:00 +4°C° 0.3 mm 7 mps 731 mmHg 73%
    11:00 +4°C° 0.3 mm 8 mps 732 mmHg 64%
    12:00 +4°C° 0.3 mm 8 mps 732 mmHg 56%
    13:00 +3°C° 0 mm 9 mps 732 mmHg 57%
    14:00 +2°C° 0 mm 10 mps 732 mmHg 57%
    15:00 +2°C° 0 mm 11 mps 732 mmHg 58%
    16:00 +2°C° 0 mm 11 mps 732 mmHg 61%
    17:00 +2°C° 0 mm 11 mps 732 mmHg 64%
    18:00 +2°C° 0 mm 11 mps 732 mmHg 67%
    19:00 +2°C° 0 mm 11 mps 732 mmHg 65%
    20:00 0°C° 0 mm 12 mps 732 mmHg 63%
    21:00 0°C° 0 mm 12 mps 732 mmHg 60%
    22:00 0°C° 0 mm 12 mps 732 mmHg 61%
    23:00 +1°C° 0 mm 11 mps 732 mmHg 61%

    Day after tomorrow, 1 March, Sunday

    Time Temperature Precipitation Wind Pressure Humidity
    00:00 +1°C° 0 mm 11 mps 732 mmHg 62%
    01:00 -1°C° 0 mm 11 mps 733 mmHg 64%
    02:00 -1°C° 0 mm 11 mps 733 mmHg 66%
    03:00 -1°C° 0 mm 11 mps 733 mmHg 69%
    04:00 -1°C° 0 mm 11 mps 733 mmHg 67%
    05:00 0°C° 0 mm 10 mps 733 mmHg 65%
    06:00 0°C° 0 mm 10 mps 734 mmHg 63%
    07:00 +1°C° 0 mm 10 mps 734 mmHg 63%
    08:00 +1°C° 0 mm 10 mps 734 mmHg 63%
    09:00 +2°C° 0 mm 10 mps 734 mmHg 63%
    10:00 +2°C° 0.1 mm 11 mps 735 mmHg 61%
    11:00 +3°C° 0.1 mm 11 mps 735 mmHg 59%
    12:00 +4°C° 0.1 mm 12 mps 735 mmHg 56%
    13:00 +4°C° 0 mm 11 mps 735 mmHg 55%
    14:00 +4°C° 0 mm 11 mps 735 mmHg 55%
    15:00 +5°C° 0 mm 10 mps 735 mmHg 54%
    16:00 +3°C° 0 mm 9 mps 735 mmHg 56%
    17:00 +2°C° 0 mm 8 mps 735 mmHg 59%
    18:00 +2°C° 0 mm 7 mps 736 mmHg 62%
    19:00 +2°C° 0 mm 7 mps 736 mmHg 65%
    20:00 0°C° 0 mm 7 mps 736 mmHg 69%
    21:00 0°C° 0 mm 7 mps 736 mmHg 73%
    22:00 +1°C° 0 mm 6 mps 736 mmHg 75%
    23:00 -1°C° 0 mm 6 mps 736 mmHg 77%

    2 March, Monday

    Time Temperature Precipitation Wind Pressure Humidity
    00:00 -1°C° 0 mm 6 mps 736 mmHg 78%
    01:00 -1°C° 0 mm 6 mps 737 mmHg 79%
    02:00 -1°C° 0 mm 6 mps 737 mmHg 80%
    03:00 -2°C° 0 mm 6 mps 737 mmHg 80%
    04:00 -2°C° 0 mm 6 mps 737 mmHg 80%
    05:00 -2°C° 0 mm 6 mps 737 mmHg 81%
    06:00 -1°C° 0 mm 5 mps 737 mmHg 81%
    07:00 -1°C° 0 mm 6 mps 738 mmHg 77%
    08:00 +1°C° 0 mm 6 mps 738 mmHg 73%
    09:00 +2°C° 0 mm 7 mps 738 mmHg 69%
    10:00 +3°C° 0 mm 7 mps 739 mmHg 65%
    11:00 +4°C° 0 mm 7 mps 739 mmHg 62%
    12:00 +5°C° 0 mm 8 mps 739 mmHg 59%
    13:00 +4°C° 0.1 mm 8 mps 739 mmHg 60%
    14:00 +4°C° 0.1 mm 8 mps 740 mmHg 62%
    15:00 +4°C° 0.1 mm 8 mps 740 mmHg 64%
    16:00 +3°C° 0 mm 7 mps 741 mmHg 67%
    17:00 +2°C° 0 mm 6 mps 741 mmHg 69%
    18:00 +2°C° 0 mm 5 mps 742 mmHg 72%
    19:00 +1°C° 0 mm 6 mps 742 mmHg 72%
    20:00 +1°C° 0 mm 6 mps 743 mmHg 72%
    21:00 +1°C° 0 mm 6 mps 743 mmHg 72%
    22:00 -1°C° 0 mm 6 mps 743 mmHg 75%
    23:00 -1°C° 0 mm 6 mps 744 mmHg 77%

    3 March, Tuesday

    Time Temperature Precipitation Wind Pressure Humidity
    00:00 -1°C° 0 mm 6 mps 744 mmHg 79%
    01:00 0°C° 0 mm 7 mps 744 mmHg 82%
    02:00 0°C° 0 mm 7 mps 744 mmHg 84%
    03:00 0°C° 0 mm 8 mps 744 mmHg 86%
    04:00 0°C° 0 mm 8 mps 744 mmHg 85%
    05:00 +1°C° 0 mm 8 mps 745 mmHg 84%
    06:00 +2°C° 0 mm 7 mps 745 mmHg 83%
    07:00 +1°C° 0 mm 8 mps 746 mmHg 82%
    08:00 +2°C° 0 mm 8 mps 746 mmHg 81%
    09:00 +2°C° 0 mm 8 mps 747 mmHg 81%
    10:00 +2°C° 0 mm 8 mps 747 mmHg 77%
    11:00 +4°C° 0 mm 8 mps 747 mmHg 74%
    12:00 +4°C° 0 mm 8 mps 748 mmHg 70%
    13:00 +4°C° 0 mm 8 mps 748 mmHg 69%
    14:00 +4°C° 0 mm 8 mps 748 mmHg 68%
    15:00 +4°C° 0 mm 7 mps 748 mmHg 68%
    16:00 +3°C° 0 mm 7 mps 748 mmHg 70%
    17:00 +3°C° 0 mm 6 mps 748 mmHg 72%
    18:00 +2°C° 0 mm 5 mps 748 mmHg 74%
    19:00 +1°C° 0 mm 5 mps 749 mmHg 76%
    20:00 +1°C° 0 mm 5 mps 749 mmHg 77%
    21:00 0°C° 0 mm 5 mps 750 mmHg 79%
    22:00 0°C° 0 mm 4 mps 750 mmHg 80%
    23:00 0°C° 0 mm 4 mps 750 mmHg 82%

    4 March, Wednesday

    Time Temperature Precipitation Wind Pressure Humidity
    00:00 -1°C° 0 mm 4 mps 750 mmHg 84%
    01:00 -1°C° 0 mm 4 mps 750 mmHg 85%
    02:00 -1°C° 0 mm 4 mps 750 mmHg 87%
    03:00 -2°C° 0 mm 4 mps 750 mmHg 88%
    04:00 -1°C° 0 mm 3 mps 750 mmHg 89%
    05:00 -1°C° 0 mm 3 mps 750 mmHg 89%
    06:00 -1°C° 0 mm 3 mps 750 mmHg 89%
    07:00 0°C° 0 mm 3 mps 750 mmHg 84%
    08:00 +1°C° 0 mm 3 mps 750 mmHg 79%
    09:00 +3°C° 0 mm 3 mps 750 mmHg 75%
    10:00 +4°C° 0 mm 3 mps 751 mmHg 68%
    11:00 +6°C° 0 mm 2 mps 751 mmHg 61%
    12:00 +7°C° 0 mm 2 mps 751 mmHg 54%
    13:00 +7°C° 0 mm 2 mps 751 mmHg 52%
    14:00 +8°C° 0 mm 1 mps 751 mmHg 49%
    15:00 +8°C° 0 mm 1 mps 750 mmHg 47%
    16:00 +7°C° 0 mm 1 mps 750 mmHg 53%
    17:00 +6°C° 0 mm 1 mps 750 mmHg 59%
    18:00 +4°C° 0 mm 1 mps 750 mmHg 64%
    19:00 +4°C° 0 mm 1 mps 751 mmHg 69%
    20:00 +3°C° 0 mm 1 mps 751 mmHg 73%
    21:00 +3°C° 0 mm 1 mps 751 mmHg 77%
    22:00 +2°C° 0 mm 1 mps 752 mmHg 78%
    23:00 +2°C° 0 mm 1 mps 752 mmHg 78%
    Show more